Other Public Products
Issued by NWS Charleston, SC

Current Version | Previous Version | Graphics & Text | Print | Product List | Glossary On
Versions: 1 2 3 4 5 6 7 8 9 10 11 12 13 14 15 16 17 18 19 20 21 22 23 24 25 26 27 28 29 30 31 32 33 34 35 36 37 38 39 40 41 42 43 44 45 46 47 48 49 50
000
FPUS82 KCHS 201712
OPUCHS

TEST...KCHS/KSAV Gateway Observations...TEST
National Weather Service Charleston SC
1200 PM EST MON NOV 20 2017

NOTE: "fair" indicates few or no clouds below 12,000 feet with no
significant weather and/or obstructions to visibility.

SCZ050-WAZ558-NCZ071-TXZ119-213-PAZ071-DCZ001-FLZ074-172-MI076-
NYZ176-178-MAZ016-IL014-TNZ027-NJZ106-GAZ044-MD014-201800-

...Gateway Observations for Charleston International...

CITY           SKY/WX    TMP DP  RH WIND       PRES   REMARKS
Chas Airport   MOSUNNY   58  31  35 VRB6      30.26F
Seattle        LGT RAIN  48  47  96 E7        29.61R
Charlotte      MOSUNNY   53  25  33 CALM      30.27F
Dallas DFW     MOSUNNY   61  30  31 S15       30.15F
Dallas Love    MOSUNNY   60  28  29 S15G21    30.16F
Philladelphia  MOSUNNY   45  21  38 W16G23    30.11F
Wash National  MOSUNNY   48  22  35 SW13      30.21F
Baltimore      MOSUNNY   45  23  42 W12       30.17F
Miami          PTSUNNY   79  67  66 NE14G21   30.05F
Detroit        PTSUNNY   43  26  51 SW18      29.99F
Newark         MOSUNNY   47  20  34 W18G28    30.03F
Laguardia      MOSUNNY   45  22  40 W20G26    30.02F
J F K          PTSUNNY   45  23  42 W16G25    30.04F
Boston Logan   MOSUNNY   40  14  34 W25G38    29.88F WCI  29
Ft. Lauderdale PTSUNNY   76  66  71 E15G25    30.05F
Chicago O`Hare MOSUNNY   45  28  51 SW22G29   29.87F
Chicago Midway MOSUNNY   47  29  49 SW22G28   29.88F
Houston Bush   PTSUNNY   61  35  37 SE9       30.23F
Houston Hobby  MOSUNNY   61  41  47 E9        30.23F
Nashville      PTSUNNY   45  23  42 SE3       30.25F
Atlanta        PTSUNNY   53  28  38 SE6       30.23F

$$

GAZ044-118-TXZ119-213-NCZ071-DCZ001-MDZ014-506-PAZ021-071-NJZ106-
NYZ176-178-MAZ106-OHZ011-021-055-MIZ076-KYZ091-ILZ014-INZ047-
MNZ060-ONZ431-201800-

...Gateway Observations for Savannah International...

CITY           SKY/WX    TMP DP  RH WIND       PRES   REMARKS
Savannah Arpt  PTSUNNY   62  32  32 E8        30.26F
Atlanta        PTSUNNY   53  28  38 SE6       30.23F
Charlotte      MOSUNNY   53  25  33 CALM      30.27F
Dallas DFW     MOSUNNY   61  30  31 S15       30.15F
Houston Bush   PTSUNNY   61  35  37 SE9       30.23F
Wash National  MOSUNNY   48  22  35 SW13      30.21F
Wash Dulles    MOSUNNY   46  22  38 W10       30.19F
Baltimore      MOSUNNY   45  23  42 W12       30.17F
Philadelphia   MOSUNNY   45  21  38 W16G23    30.11F
Newark         MOSUNNY   47  20  34 W18G28    30.03F
Laguardia      MOSUNNY   45  22  40 W20G26    30.02F
J F K          PTSUNNY   45  23  42 W16G25    30.04F
Boston         MOSUNNY   40  14  34 W25G38    29.88F WCI  29
Pittsburg      MOSUNNY   36  22  56 SW14G21   30.13F WCI  27
Akron          MOSUNNY   38  24  57 SW16      30.10F WCI  29
Cleveland      MOSUNNY   41  26  55 S15       30.09F
Cincinnati     PTSUNNY   41  27  57 S9        30.19F
Columbus       SUNNY     38  25  59 S14G20    30.18F WCI  30
Detroit        PTSUNNY   43  26  51 SW18      29.99F
Chicago O`Hare MOSUNNY   45  28  51 SW22G29   29.87F
Minneapolis    CLOUDY    42  29  59 S9        29.54F
Indianapolis   MOSUNNY   44  24  45 S17       30.12F
Toronto Canada CLOUDY    36  27  69 W16       29.93F WCI  26

$$




USA.gov is the U.S. government's official web portal to all federal, state and local government web resources and services.